Location: Bruderhein
(53.8035°N, 112.9265°W)
Time: 08:38:29
(UTC+00:00)

TIGRISAT - Pass Details

Date: 09 April 2023
Orbit: 599 x 682 km, 97.7° (Epoch: 03 June)

Event Time Altitude Azimuth Distance (km) Brightness Sun altitude
Rises 03:22:18 0° 3° (N) 3,064 ? -9.4°
Reaches altitude 10° 03:25:33 10° 339° (NNW) 2,141 ? -9.8°
Maximum altitude 03:27:55 14° 309° (NW) 1,878 ? -10.1°
Drops below altitude 10° 03:30:15 10° 278° (W) 2,124 ? -10.4°
Sets 03:33:29 0° 254° (WSW) 3,023 ? -10.8°
